DAL3242 KMCI-PAKT

Flight info

Callsign DAL3242
Flight time N/A
Altitude 36000
Route TIFTO8 TIFTO OBH ANW ASHLI TOVUM/N0464F380 YWL YYD ANN
Aircraft A339/H-SADE1E2E3GHIJ3J5M1P2RWXY/LB2D1

Departure

Time N/A
Airport Kansas City International Airport (KMCI)

Arrival

Time 2026-04-20 02:12
Airport Ketchikan International Airport (PAKT)
Time Latitude Longitude Altitude Speed Heading
2026-04-19 23:04 44.65672 -103.31954 36160 ft 413 kts 311°
2026-04-19 23:05 44.69362 -103.38199 36159 ft 414 kts 311°
2026-04-19 23:05 44.73020 -103.44408 36160 ft 414 kts 311°
2026-04-19 23:06 44.76679 -103.50630 36162 ft 414 kts 311°
2026-04-19 23:06 44.80333 -103.56857 36157 ft 413 kts 311°
2026-04-19 23:07 44.83998 -103.63116 36154 ft 413 kts 311°
2026-04-19 23:07 44.87632 -103.69338 36155 ft 413 kts 311°
2026-04-19 23:08 44.91294 -103.75621 36153 ft 413 kts 311°
2026-04-19 23:08 44.94918 -103.81853 36150 ft 412 kts 311°
2026-04-19 23:09 44.98567 -103.88140 36150 ft 412 kts 311°
2026-04-19 23:09 45.02187 -103.94392 36150 ft 412 kts 311°
2026-04-19 23:10 45.05797 -104.00640 36147 ft 412 kts 311°
2026-04-19 23:10 45.09426 -104.06936 36151 ft 412 kts 311°
2026-04-19 23:11 45.13031 -104.13204 36134 ft 412 kts 311°
2026-04-19 23:11 45.16659 -104.19525 36140 ft 411 kts 311°
2026-04-19 23:12 45.20274 -104.25838 36144 ft 411 kts 311°
2026-04-19 23:12 45.23868 -104.32129 36137 ft 411 kts 311°
2026-04-19 23:13 45.27454 -104.38419 36137 ft 411 kts 311°
2026-04-19 23:13 45.31048 -104.44738 36137 ft 411 kts 310°
2026-04-19 23:14 45.34626 -104.51043 36134 ft 411 kts 310°
2026-04-19 23:14 45.38222 -104.57394 36136 ft 411 kts 310°
2026-04-19 23:15 45.41802 -104.63730 36126 ft 411 kts 310°
2026-04-19 23:15 45.45375 -104.70068 36122 ft 411 kts 310°
2026-04-19 23:16 45.48934 -104.76395 36108 ft 411 kts 310°
2026-04-19 23:16 45.52514 -104.82776 36119 ft 411 kts 310°
2026-04-19 23:17 45.56079 -104.89142 36119 ft 411 kts 310°
2026-04-19 23:17 45.59642 -104.95519 36104 ft 411 kts 310°
2026-04-19 23:18 45.63213 -105.01927 36101 ft 411 kts 310°
2026-04-19 23:18 45.66765 -105.08314 36103 ft 411 kts 310°
2026-04-19 23:19 45.70334 -105.14744 36092 ft 411 kts 310°
2026-04-19 23:19 45.73878 -105.21148 36086 ft 411 kts 310°
2026-04-19 23:20 45.77432 -105.27581 36083 ft 411 kts 310°
2026-04-19 23:20 45.80974 -105.34008 36083 ft 411 kts 310°
2026-04-19 23:21 45.84513 -105.40447 36080 ft 412 kts 310°
2026-04-19 23:21 45.88052 -105.46897 36076 ft 411 kts 310°
2026-04-19 23:22 45.91580 -105.53342 36073 ft 411 kts 310°
2026-04-19 23:22 45.95106 -105.59800 36070 ft 411 kts 310°
2026-04-19 23:23 45.98626 -105.66261 36066 ft 411 kts 310°
2026-04-19 23:23 46.02165 -105.72772 36065 ft 411 kts 310°
2026-04-19 23:24 46.05678 -105.79249 36063 ft 411 kts 310°
2026-04-19 23:24 46.09190 -105.85741 36061 ft 411 kts 310°
2026-04-19 23:25 46.12700 -105.92247 36058 ft 411 kts 309°
2026-04-19 23:25 46.16197 -105.98741 36054 ft 411 kts 309°
2026-04-19 23:26 46.19701 -106.05257 36056 ft 411 kts 309°
2026-04-19 23:26 46.23223 -106.11816 36058 ft 411 kts 309°
2026-04-19 23:27 46.26722 -106.18349 36060 ft 412 kts 309°
2026-04-19 23:27 46.28454 -106.21573 35841 ft 406 kts 308°
2026-04-19 23:27 46.30188 -106.24817 36056 ft 407 kts 308°
2026-04-19 23:28 46.33548 -106.31477 36058 ft 413 kts 306°
2026-04-19 23:28 46.36929 -106.38240 36065 ft 412 kts 307°
2026-04-19 23:29 46.40312 -106.44943 36068 ft 413 kts 307°
2026-04-19 23:29 46.43675 -106.51659 36065 ft 413 kts 307°
2026-04-19 23:30 46.47035 -106.58397 36066 ft 413 kts 306°
2026-04-19 23:30 46.49851 -106.64059 36071 ft 413 kts 306°
2026-04-19 23:31 46.53204 -106.70822 36066 ft 414 kts 306°
2026-04-19 23:31 46.56557 -106.77606 36074 ft 414 kts 306°
2026-04-19 23:32 46.59900 -106.84385 36065 ft 414 kts 306°
2026-04-19 23:32 46.63249 -106.91194 36075 ft 414 kts 306°
2026-04-19 23:33 46.66591 -106.98005 36064 ft 414 kts 306°
2026-04-19 23:33 46.69935 -107.04836 36070 ft 414 kts 306°
2026-04-19 23:34 46.73276 -107.11678 36062 ft 414 kts 306°
2026-04-19 23:34 46.76620 -107.18543 36059 ft 415 kts 306°
2026-04-19 23:35 46.79970 -107.25438 36058 ft 415 kts 306°
2026-04-19 23:35 46.83304 -107.32318 36057 ft 416 kts 305°
2026-04-19 23:36 46.86632 -107.39202 36059 ft 416 kts 305°
2026-04-19 23:36 46.89960 -107.46102 36055 ft 416 kts 305°
2026-04-19 23:37 46.93308 -107.53063 36057 ft 416 kts 305°
2026-04-19 23:37 46.96638 -107.60004 36055 ft 417 kts 305°
2026-04-19 23:38 46.99945 -107.66913 36051 ft 417 kts 305°
2026-04-19 23:38 47.03275 -107.73889 36050 ft 417 kts 305°
2026-04-19 23:39 47.06584 -107.80836 36043 ft 417 kts 305°
2026-04-19 23:39 47.09905 -107.87826 36041 ft 417 kts 305°
2026-04-19 23:40 47.13231 -107.94845 36038 ft 417 kts 304°
2026-04-19 23:40 47.16519 -108.01803 36036 ft 417 kts 304°
2026-04-19 23:41 47.19822 -108.08808 36029 ft 417 kts 304°
2026-04-19 23:41 47.23119 -108.15818 36026 ft 417 kts 304°
2026-04-19 23:42 47.26416 -108.22847 36023 ft 417 kts 304°
2026-04-19 23:42 47.29707 -108.29879 36024 ft 417 kts 304°
2026-04-19 23:43 47.33016 -108.36969 36017 ft 418 kts 304°
2026-04-19 23:43 47.36284 -108.43991 36019 ft 418 kts 304°
2026-04-19 23:44 47.39593 -108.51119 36022 ft 418 kts 304°
2026-04-19 23:44 47.42856 -108.58166 36016 ft 418 kts 304°
2026-04-19 23:45 47.46152 -108.65302 36014 ft 419 kts 304°
2026-04-19 23:45 47.49431 -108.72418 36012 ft 419 kts 303°
2026-04-19 23:46 47.52698 -108.79529 36015 ft 419 kts 303°
2026-04-19 23:46 47.55967 -108.86663 36010 ft 419 kts 303°
2026-04-19 23:47 47.59240 -108.93822 36010 ft 419 kts 303°
2026-04-19 23:47 47.62504 -109.00980 36009 ft 420 kts 303°
2026-04-19 23:48 47.65761 -109.08140 36010 ft 420 kts 303°
2026-04-19 23:48 47.69023 -109.15332 36007 ft 420 kts 303°
2026-04-19 23:49 47.72277 -109.22525 36004 ft 420 kts 303°
2026-04-19 23:49 47.75534 -109.29744 36006 ft 420 kts 303°
2026-04-19 23:50 47.78774 -109.36944 36007 ft 420 kts 303°
2026-04-19 23:50 47.82018 -109.44175 36006 ft 420 kts 303°
2026-04-19 23:51 47.85251 -109.51394 36006 ft 419 kts 303°
2026-04-19 23:51 47.88482 -109.58631 36006 ft 419 kts 303°
2026-04-19 23:52 47.91701 -109.65861 36006 ft 420 kts 303°
2026-04-19 23:52 47.94928 -109.73127 36000 ft 420 kts 302°
2026-04-19 23:53 47.98149 -109.80399 35996 ft 420 kts 302°
2026-04-19 23:53 48.01360 -109.87671 35992 ft 420 kts 302°
2026-04-19 23:54 48.04566 -109.94946 35984 ft 421 kts 302°
2026-04-19 23:54 48.07782 -110.02266 35980 ft 421 kts 302°
2026-04-19 23:55 48.10995 -110.09600 35980 ft 421 kts 302°
2026-04-19 23:55 48.14194 -110.16921 35980 ft 421 kts 302°
2026-04-19 23:56 48.17402 -110.24282 35980 ft 421 kts 302°
2026-04-19 23:56 48.20598 -110.31633 35979 ft 421 kts 302°
2026-04-19 23:57 48.23779 -110.38974 35976 ft 420 kts 302°
2026-04-19 23:57 48.26963 -110.46339 35975 ft 420 kts 302°
2026-04-19 23:58 48.30147 -110.53725 35974 ft 420 kts 302°
2026-04-19 23:58 48.33316 -110.61096 35975 ft 420 kts 301°
2026-04-19 23:59 48.36473 -110.68459 35974 ft 420 kts 301°
2026-04-19 23:59 48.39629 -110.75839 35969 ft 420 kts 301°
2026-04-20 00:00 48.42797 -110.83269 35974 ft 420 kts 301°
2026-04-20 00:00 48.45944 -110.90668 35967 ft 420 kts 301°
2026-04-20 00:01 48.49088 -110.98081 35964 ft 421 kts 301°
2026-04-20 00:02 48.53820 -111.09282 35961 ft 421 kts 301°
2026-04-20 00:02 48.56962 -111.16741 35962 ft 421 kts 301°
2026-04-20 00:03 48.60096 -111.24203 35961 ft 421 kts 301°
2026-04-20 00:03 48.63221 -111.31666 35957 ft 421 kts 301°
2026-04-20 00:04 48.66345 -111.39147 35958 ft 422 kts 300°
2026-04-20 00:04 48.69476 -111.46662 35958 ft 422 kts 300°
2026-04-20 00:05 48.72593 -111.54168 35961 ft 422 kts 300°
2026-04-20 00:05 48.75725 -111.61731 35958 ft 422 kts 300°
2026-04-20 00:06 48.78839 -111.69272 35958 ft 422 kts 300°
2026-04-20 00:06 48.81951 -111.76828 35957 ft 422 kts 300°
2026-04-20 00:07 48.85049 -111.84372 35956 ft 423 kts 300°
2026-04-20 00:07 48.88149 -111.91945 35954 ft 423 kts 300°
2026-04-20 00:08 48.91262 -111.99568 35952 ft 423 kts 300°
2026-04-20 00:08 48.94360 -112.07177 35947 ft 423 kts 300°
2026-04-20 00:09 48.97431 -112.14739 35949 ft 423 kts 300°
2026-04-20 00:09 49.00530 -112.22394 35948 ft 423 kts 299°
2026-04-20 00:10 49.03612 -112.30030 35948 ft 423 kts 299°
2026-04-20 00:10 49.06693 -112.37684 35944 ft 423 kts 299°
2026-04-20 00:11 49.09765 -112.45337 35943 ft 423 kts 299°
2026-04-20 00:11 49.12834 -112.53006 35939 ft 423 kts 299°
2026-04-20 00:12 49.15899 -112.60674 35941 ft 423 kts 299°
2026-04-20 00:12 49.18964 -112.68361 35944 ft 423 kts 298°
2026-04-20 00:13 49.22014 -112.76032 35941 ft 423 kts 298°
2026-04-20 00:13 49.25031 -112.83811 35933 ft 423 kts 296°
2026-04-20 00:14 49.27449 -112.90302 35934 ft 423 kts 298°
2026-04-20 00:14 49.30932 -112.99344 35929 ft 423 kts 298°
2026-04-20 00:15 49.33422 -113.05850 35930 ft 423 kts 297°
2026-04-20 00:15 49.36863 -113.14900 35932 ft 423 kts 297°
2026-04-20 00:16 49.39338 -113.21436 35933 ft 423 kts 297°
2026-04-20 00:16 49.42279 -113.29221 35937 ft 423 kts 297°
2026-04-20 00:17 49.45225 -113.37052 35934 ft 423 kts 297°
2026-04-20 00:17 49.48175 -113.44926 35936 ft 423 kts 297°
2026-04-20 00:18 49.51090 -113.52729 35943 ft 423 kts 297°
2026-04-20 00:18 49.54031 -113.60627 35947 ft 423 kts 297°
2026-04-20 00:19 49.56938 -113.68457 35952 ft 423 kts 297°
2026-04-20 00:19 49.59856 -113.76339 35954 ft 422 kts 296°
2026-04-20 00:20 49.62762 -113.84214 35953 ft 422 kts 296°
2026-04-20 00:20 49.65654 -113.92076 35956 ft 422 kts 296°
2026-04-20 00:21 49.68548 -113.99966 35957 ft 422 kts 296°
2026-04-20 00:21 49.71434 -114.07854 35964 ft 422 kts 296°
2026-04-20 00:22 49.74308 -114.15738 35967 ft 421 kts 296°
2026-04-20 00:22 49.77172 -114.23619 35972 ft 421 kts 296°
2026-04-20 00:23 49.80030 -114.31510 35984 ft 420 kts 296°
2026-04-20 00:23 49.82868 -114.39362 35980 ft 420 kts 296°
2026-04-20 00:24 49.85717 -114.47275 35991 ft 421 kts 296°
2026-04-20 00:24 49.88567 -114.55213 35992 ft 422 kts 296°
2026-04-20 00:25 49.91428 -114.63202 36000 ft 423 kts 296°
2026-04-20 00:25 49.94289 -114.71216 36015 ft 425 kts 296°
2026-04-20 00:26 49.97151 -114.79267 36028 ft 426 kts 296°
2026-04-20 00:26 50.00002 -114.87306 36025 ft 428 kts 296°
2026-04-20 00:27 50.02868 -114.95414 36029 ft 428 kts 296°
2026-04-20 00:27 50.05740 -115.03567 36024 ft 430 kts 296°
2026-04-20 00:28 50.08609 -115.11732 36015 ft 431 kts 296°
2026-04-20 00:28 50.11497 -115.19974 36027 ft 431 kts 296°
2026-04-20 00:29 50.14341 -115.28123 36025 ft 431 kts 296°
2026-04-20 00:29 50.17213 -115.36383 36014 ft 432 kts 296°
2026-04-20 00:30 50.20074 -115.44633 36012 ft 432 kts 296°
2026-04-20 00:30 50.22921 -115.52870 36009 ft 432 kts 295°
2026-04-20 00:31 50.25772 -115.61151 36015 ft 433 kts 295°
2026-04-20 00:31 50.28625 -115.69461 36006 ft 435 kts 295°
2026-04-20 00:32 50.31471 -115.77766 35994 ft 432 kts 295°
2026-04-20 00:32 50.34302 -115.86067 35998 ft 432 kts 295°
2026-04-20 00:33 50.37129 -115.94382 36002 ft 432 kts 295°
2026-04-20 00:33 50.39949 -116.02702 36002 ft 432 kts 295°
2026-04-20 00:34 50.42760 -116.11027 36003 ft 433 kts 295°
2026-04-20 00:34 50.45571 -116.19377 36011 ft 434 kts 295°
2026-04-20 00:35 50.48394 -116.27789 36020 ft 436 kts 295°
2026-04-20 00:35 50.51215 -116.36225 36031 ft 436 kts 295°
2026-04-20 00:36 50.54019 -116.44633 36022 ft 435 kts 295°
2026-04-20 00:36 50.56820 -116.53065 36022 ft 436 kts 295°
2026-04-20 00:37 50.59616 -116.61512 36022 ft 435 kts 295°
2026-04-20 00:37 50.62423 -116.70025 36024 ft 436 kts 295°
2026-04-20 00:38 50.65199 -116.78464 36023 ft 436 kts 294°
2026-04-20 00:38 50.67986 -116.86960 36016 ft 437 kts 294°
2026-04-20 00:39 50.70762 -116.95468 36019 ft 434 kts 294°
2026-04-20 00:39 50.73524 -117.03960 36016 ft 435 kts 294°
2026-04-20 00:40 50.76287 -117.12466 36000 ft 436 kts 294°
2026-04-20 00:40 50.79053 -117.21030 36013 ft 437 kts 294°
2026-04-20 00:41 50.81801 -117.29559 36019 ft 438 kts 294°
2026-04-20 00:41 50.84571 -117.38185 36012 ft 437 kts 294°
2026-04-20 00:42 50.87308 -117.46734 36006 ft 434 kts 294°
2026-04-20 00:42 50.90041 -117.55306 36002 ft 438 kts 294°
2026-04-20 00:43 50.92760 -117.63870 35996 ft 435 kts 294°
2026-04-20 00:43 50.95475 -117.72448 35996 ft 439 kts 294°
2026-04-20 00:44 50.98208 -117.81104 35966 ft 435 kts 294°
2026-04-20 00:44 51.00903 -117.89676 35961 ft 436 kts 294°
2026-04-20 00:45 51.03603 -117.98296 35944 ft 435 kts 294°
2026-04-20 00:45 51.06307 -118.06947 35939 ft 436 kts 294°
2026-04-20 00:46 51.08988 -118.15568 35949 ft 437 kts 294°
2026-04-20 00:46 51.11675 -118.24233 35945 ft 436 kts 294°
2026-04-20 00:47 51.14356 -118.32906 35942 ft 436 kts 294°
2026-04-20 00:47 51.17008 -118.41545 35952 ft 437 kts 294°
2026-04-20 00:48 51.19683 -118.50256 35952 ft 438 kts 293°
2026-04-20 00:48 51.22351 -118.58980 35960 ft 438 kts 293°
2026-04-20 00:49 51.25018 -118.67736 35962 ft 439 kts 293°
2026-04-20 00:49 51.27688 -118.76531 35962 ft 439 kts 293°
2026-04-20 00:50 51.30338 -118.85305 35938 ft 439 kts 293°
2026-04-20 00:50 51.32977 -118.94069 35963 ft 438 kts 293°
2026-04-20 00:51 51.35615 -119.02847 35959 ft 437 kts 293°
2026-04-20 00:51 51.38232 -119.11597 35933 ft 438 kts 293°
2026-04-20 00:52 51.40865 -119.20436 35938 ft 437 kts 293°
2026-04-20 00:52 51.43474 -119.29224 35936 ft 437 kts 293°
2026-04-20 00:53 51.46068 -119.37997 35931 ft 437 kts 292°
2026-04-20 00:53 51.48666 -119.46809 35929 ft 437 kts 292°
2026-04-20 00:54 51.51257 -119.55639 35911 ft 437 kts 293°
2026-04-20 00:54 51.53838 -119.64456 35916 ft 437 kts 292°
2026-04-20 00:55 51.56410 -119.73281 35913 ft 437 kts 292°
2026-04-20 00:55 51.58984 -119.82144 35910 ft 437 kts 292°
2026-04-20 00:56 51.61549 -119.91012 35911 ft 438 kts 292°
2026-04-20 00:56 51.64110 -119.99897 35916 ft 438 kts 292°
2026-04-20 00:57 51.66667 -120.08801 35916 ft 438 kts 292°
2026-04-20 00:57 51.69226 -120.17746 35911 ft 438 kts 292°
2026-04-20 00:58 51.71763 -120.26648 35914 ft 437 kts 292°
2026-04-20 00:58 51.74283 -120.35520 35916 ft 437 kts 292°
2026-04-20 00:59 51.76824 -120.44504 35923 ft 438 kts 292°
2026-04-20 00:59 51.78922 -120.51951 35924 ft 438 kts 292°
2026-04-20 01:00 51.81437 -120.60906 35926 ft 439 kts 292°
2026-04-20 01:00 51.83954 -120.69903 35927 ft 439 kts 292°
2026-04-20 01:01 51.86469 -120.78922 35931 ft 439 kts 292°
2026-04-20 01:01 51.88968 -120.87923 35933 ft 439 kts 292°
2026-04-20 01:02 51.91471 -120.96974 35933 ft 439 kts 292°
2026-04-20 01:02 51.93956 -121.05995 35937 ft 440 kts 292°
2026-04-20 01:03 51.96449 -121.15083 35943 ft 440 kts 292°
2026-04-20 01:03 51.98924 -121.24137 35947 ft 441 kts 292°
2026-04-20 01:04 52.01412 -121.33275 35945 ft 441 kts 292°
2026-04-20 01:04 52.03884 -121.42388 35951 ft 442 kts 292°
2026-04-20 01:05 52.06350 -121.51521 35957 ft 442 kts 292°
2026-04-20 01:05 52.08816 -121.60688 35954 ft 443 kts 292°
2026-04-20 01:06 52.11274 -121.69863 35951 ft 443 kts 292°
2026-04-20 01:06 52.13733 -121.79064 35950 ft 443 kts 292°
2026-04-20 01:07 52.16189 -121.88273 35948 ft 444 kts 292°
2026-04-20 01:07 52.18642 -121.97507 35944 ft 444 kts 292°
2026-04-20 01:08 52.21084 -122.06735 35948 ft 444 kts 292°
2026-04-20 01:08 52.23664 -122.15866 35946 ft 445 kts 300°
2026-04-20 01:09 52.27458 -122.23847 35942 ft 447 kts 310°
2026-04-20 01:09 52.31568 -122.31474 35944 ft 447 kts 310°
2026-04-20 01:10 52.35680 -122.39129 35938 ft 447 kts 310°
2026-04-20 01:10 52.41836 -122.50644 35929 ft 447 kts 309°
2026-04-20 01:11 52.45935 -122.58351 35920 ft 448 kts 309°
2026-04-20 01:11 52.50013 -122.66041 35924 ft 448 kts 309°
2026-04-20 01:12 52.54079 -122.73734 35922 ft 448 kts 309°
2026-04-20 01:12 52.58166 -122.81488 35922 ft 448 kts 309°
2026-04-20 01:13 52.62243 -122.89249 35926 ft 448 kts 309°
2026-04-20 01:13 52.66306 -122.97006 35924 ft 448 kts 309°
2026-04-20 01:14 52.70369 -123.04788 35921 ft 448 kts 309°
2026-04-20 01:14 52.74429 -123.12587 35929 ft 447 kts 309°
2026-04-20 01:15 52.78464 -123.20363 35927 ft 447 kts 309°
2026-04-20 01:15 52.82509 -123.28185 35932 ft 447 kts 309°
2026-04-20 01:16 52.86528 -123.35979 35934 ft 447 kts 309°
2026-04-20 01:16 52.90562 -123.43826 35932 ft 446 kts 309°
2026-04-20 01:17 52.94569 -123.51647 35933 ft 446 kts 309°
2026-04-20 01:17 52.98585 -123.59508 35928 ft 446 kts 309°
2026-04-20 01:18 53.02570 -123.67335 35927 ft 446 kts 309°
2026-04-20 01:18 53.06560 -123.75195 35931 ft 446 kts 309°
2026-04-20 01:19 53.10556 -123.83093 35931 ft 446 kts 309°
2026-04-20 01:19 53.14545 -123.91003 35931 ft 446 kts 309°
2026-04-20 01:20 53.18541 -123.98949 35937 ft 447 kts 309°
2026-04-20 01:20 53.22522 -124.06891 35939 ft 447 kts 309°
2026-04-20 01:21 53.26517 -124.14887 35942 ft 447 kts 309°
2026-04-20 01:21 53.30507 -124.22900 35933 ft 448 kts 309°
2026-04-20 01:22 53.34458 -124.30858 35945 ft 448 kts 309°
2026-04-20 01:22 53.38447 -124.38919 35957 ft 448 kts 309°
2026-04-20 01:23 53.42407 -124.46947 35954 ft 448 kts 309°
2026-04-20 01:23 53.46371 -124.55010 35937 ft 448 kts 309°
2026-04-20 01:24 53.50324 -124.63077 35959 ft 448 kts 309°
2026-04-20 01:24 53.54270 -124.71155 35966 ft 448 kts 309°
2026-04-20 01:25 53.58217 -124.79262 35945 ft 448 kts 309°
2026-04-20 01:25 53.62172 -124.87413 35942 ft 448 kts 309°
2026-04-20 01:26 53.66120 -124.95574 35966 ft 448 kts 309°
2026-04-20 01:26 53.70034 -125.03694 35972 ft 448 kts 309°
2026-04-20 01:27 53.73972 -125.11889 35945 ft 448 kts 309°
2026-04-20 01:27 53.77878 -125.20043 35956 ft 448 kts 309°
2026-04-20 01:28 53.81778 -125.28213 35959 ft 448 kts 309°
2026-04-20 01:28 53.85703 -125.36463 35958 ft 448 kts 309°
2026-04-20 01:29 53.89617 -125.44715 35965 ft 448 kts 309°
2026-04-20 01:29 53.93506 -125.52943 35961 ft 448 kts 309°
2026-04-20 01:30 53.97412 -125.61234 35965 ft 449 kts 309°
2026-04-20 01:30 54.01288 -125.69490 35961 ft 449 kts 309°
2026-04-20 01:31 54.05191 -125.77830 35967 ft 449 kts 309°
2026-04-20 01:31 54.09072 -125.86150 35969 ft 449 kts 309°
2026-04-20 01:32 54.12952 -125.94498 35969 ft 449 kts 309°
2026-04-20 01:32 54.16806 -126.02817 35966 ft 449 kts 309°
2026-04-20 01:33 54.20697 -126.11245 35970 ft 449 kts 309°
2026-04-20 01:33 54.24548 -126.19615 35966 ft 449 kts 309°
2026-04-20 01:34 54.28414 -126.28044 35970 ft 449 kts 309°
2026-04-20 01:34 54.32239 -126.36413 35968 ft 449 kts 309°
2026-04-20 01:35 54.36087 -126.44860 35969 ft 448 kts 309°
2026-04-20 01:35 54.39931 -126.53316 35963 ft 448 kts 309°
2026-04-20 01:36 54.43552 -126.62011 35965 ft 449 kts 301°
2026-04-20 01:36 54.46130 -126.71794 35966 ft 451 kts 290°
2026-04-20 01:37 54.47699 -126.82266 35958 ft 452 kts 286°
2026-04-20 01:37 54.49215 -126.92698 35963 ft 452 kts 286°
2026-04-20 01:38 54.50731 -127.03209 35968 ft 452 kts 285°
2026-04-20 01:38 54.52218 -127.13683 35961 ft 452 kts 285°
2026-04-20 01:39 54.53691 -127.24153 35976 ft 451 kts 285°
2026-04-20 01:39 54.55161 -127.34667 35973 ft 451 kts 285°
2026-04-20 01:40 54.56618 -127.45157 35985 ft 450 kts 285°
2026-04-20 01:40 54.58070 -127.55690 35998 ft 450 kts 285°
2026-04-20 01:41 54.59509 -127.66201 36028 ft 449 kts 285°
2026-04-20 01:41 54.60929 -127.76634 36015 ft 449 kts 285°
2026-04-20 01:42 54.62347 -127.87139 36027 ft 449 kts 284°
2026-04-20 01:42 54.63751 -127.97619 36044 ft 448 kts 284°
2026-04-20 01:43 54.65143 -128.08081 36046 ft 447 kts 284°
2026-04-20 01:43 54.66523 -128.18521 36032 ft 447 kts 284°
2026-04-20 01:44 54.67658 -128.27168 36036 ft 447 kts 284°
2026-04-20 01:44 54.69037 -128.37743 36043 ft 447 kts 284°
2026-04-20 01:45 54.70395 -128.48238 36032 ft 447 kts 284°
2026-04-20 01:45 54.71745 -128.58742 36027 ft 447 kts 284°
2026-04-20 01:46 54.73089 -128.69289 36042 ft 447 kts 284°
2026-04-20 01:46 54.74419 -128.79787 36042 ft 448 kts 284°
2026-04-20 01:47 54.75744 -128.90328 36049 ft 447 kts 283°
2026-04-20 01:47 54.76766 -128.98521 36050 ft 447 kts 283°
2026-04-20 01:50 54.76936 -128.99882 36051 ft 447 kts 283°
2026-04-20 01:50 54.78246 -129.10450 35562 ft 447 kts 283°
2026-04-20 01:51 54.78900 -129.15747 34733 ft 451 kts 283°
2026-04-20 01:51 54.79550 -129.21034 33523 ft 458 kts 283°
2026-04-20 01:51 54.80213 -129.26466 32109 ft 463 kts 283°
2026-04-20 01:51 54.80880 -129.31962 30887 ft 465 kts 283°
2026-04-20 01:52 54.81544 -129.37443 30029 ft 459 kts 283°
2026-04-20 01:52 54.82194 -129.42833 29364 ft 452 kts 283°
2026-04-20 01:52 54.82820 -129.48044 28999 ft 440 kts 283°
2026-04-20 01:52 54.83440 -129.53212 28695 ft 430 kts 283°
2026-04-20 01:53 54.84040 -129.58238 28121 ft 428 kts 283°
2026-04-20 01:53 54.84640 -129.63270 27547 ft 422 kts 283°
2026-04-20 01:53 54.85213 -129.68100 26994 ft 417 kts 283°
2026-04-20 01:53 54.85793 -129.73025 26444 ft 413 kts 282°
2026-04-20 01:54 54.86365 -129.77898 25877 ft 409 kts 282°
2026-04-20 01:54 54.86922 -129.82661 25335 ft 405 kts 282°
2026-04-20 01:54 54.87482 -129.87450 24779 ft 400 kts 282°
2026-04-20 01:54 54.88032 -129.92182 24191 ft 398 kts 282°
2026-04-20 01:55 54.88577 -129.96872 23646 ft 392 kts 282°
2026-04-20 01:55 54.89106 -130.01454 23089 ft 388 kts 282°
2026-04-20 01:55 54.89631 -130.06027 22574 ft 381 kts 282°
2026-04-20 01:55 54.90144 -130.10505 22040 ft 375 kts 282°
2026-04-20 01:56 54.90649 -130.14929 21529 ft 369 kts 282°
2026-04-20 01:56 54.91144 -130.19285 21015 ft 364 kts 282°
2026-04-20 01:56 54.91626 -130.23532 20517 ft 358 kts 282°
2026-04-20 01:56 54.92104 -130.27767 20002 ft 357 kts 282°
2026-04-20 01:57 54.92600 -130.32171 19493 ft 384 kts 282°
2026-04-20 01:57 54.93116 -130.36754 19141 ft 391 kts 282°
2026-04-20 01:57 54.93638 -130.41425 18558 ft 393 kts 282°
2026-04-20 01:57 54.94156 -130.46071 17861 ft 395 kts 282°
2026-04-20 01:58 54.94674 -130.50735 17165 ft 388 kts 282°
2026-04-20 01:58 54.95178 -130.55286 16653 ft 377 kts 281°
2026-04-20 01:58 54.95669 -130.59733 16089 ft 368 kts 281°
2026-04-20 01:58 54.96139 -130.64015 15587 ft 359 kts 281°
2026-04-20 01:59 54.96601 -130.68235 15066 ft 351 kts 281°
2026-04-20 01:59 54.97053 -130.72373 14546 ft 344 kts 281°
2026-04-20 01:59 54.97495 -130.76432 14042 ft 337 kts 281°
2026-04-20 01:59 54.97929 -130.80430 13344 ft 334 kts 281°
2026-04-20 02:00 54.98354 -130.84346 12948 ft 332 kts 281°
2026-04-20 02:00 54.98787 -130.88349 12471 ft 337 kts 280°
2026-04-20 02:00 54.99217 -130.92354 11965 ft 334 kts 280°
2026-04-20 02:00 54.99637 -130.96286 11492 ft 326 kts 280°
2026-04-20 02:01 55.00043 -131.00083 11032 ft 318 kts 280°
2026-04-20 02:01 55.00441 -131.03824 10561 ft 310 kts 279°
2026-04-20 02:01 55.00825 -131.07447 10361 ft 295 kts 279°
2026-04-20 02:01 55.01187 -131.10867 10146 ft 279 kts 279°
2026-04-20 02:02 55.01535 -131.14164 9692 ft 274 kts 279°
2026-04-20 02:02 55.01868 -131.17340 9480 ft 267 kts 279°
2026-04-20 02:02 55.02205 -131.20580 9337 ft 271 kts 279°
2026-04-20 02:02 55.02541 -131.23811 9207 ft 269 kts 279°
2026-04-20 02:03 55.02877 -131.27031 8885 ft 268 kts 279°
2026-04-20 02:03 55.03203 -131.30166 8575 ft 260 kts 279°
2026-04-20 02:03 55.03520 -131.33214 8238 ft 250 kts 279°
2026-04-20 02:03 55.03821 -131.36123 7934 ft 243 kts 279°
2026-04-20 02:04 55.04135 -131.39174 7750 ft 265 kts 279°
2026-04-20 02:04 55.04465 -131.42363 7693 ft 265 kts 279°
2026-04-20 02:04 55.04797 -131.45500 7283 ft 267 kts 281°
2026-04-20 02:04 55.05551 -131.48469 6724 ft 270 kts 305°
2026-04-20 02:05 55.06973 -131.50627 6120 ft 273 kts 330°
2026-04-20 02:05 55.08748 -131.51440 5817 ft 264 kts 357°
2026-04-20 02:05 55.10499 -131.50809 5539 ft 254 kts 25°
2026-04-20 02:05 55.11835 -131.48914 5275 ft 246 kts 52°
2026-04-20 02:06 55.12808 -131.46185 4961 ft 280 kts 60°
2026-04-20 02:06 55.13828 -131.43192 4785 ft 285 kts 57°
2026-04-20 02:06 55.15173 -131.40809 4682 ft 273 kts 33°
2026-04-20 02:06 55.16874 -131.39632 4539 ft 254 kts
2026-04-20 02:07 55.18557 -131.39863 4385 ft 235 kts 340°
2026-04-20 02:07 55.19874 -131.41316 4130 ft 224 kts 312°
2026-04-20 02:07 55.20718 -131.43600 3774 ft 222 kts 296°
2026-04-20 02:07 55.21431 -131.45983 3497 ft 218 kts 299°
2026-04-20 02:08 55.22252 -131.48195 3066 ft 220 kts 307°
2026-04-20 02:08 55.23233 -131.50271 2723 ft 220 kts 312°
2026-04-20 02:08 55.24292 -131.52205 2393 ft 218 kts 315°
2026-04-20 02:08 55.25363 -131.54029 2128 ft 211 kts 316°
2026-04-20 02:09 55.26370 -131.55712 1975 ft 188 kts 316°
2026-04-20 02:09 55.27272 -131.57221 1850 ft 168 kts 316°
2026-04-20 02:09 55.28055 -131.58537 1660 ft 149 kts 316°
2026-04-20 02:09 55.28789 -131.59779 1266 ft 145 kts 316°
2026-04-20 02:10 55.29507 -131.61005 841 ft 142 kts 316°
2026-04-20 02:10 55.30211 -131.62205 450 ft 138 kts 316°
2026-04-20 02:10 55.30871 -131.63357 368 ft 137 kts 314°
2026-04-20 02:10 55.31556 -131.64536 370 ft 140 kts 316°
2026-04-20 02:11 55.32251 -131.65737 359 ft 139 kts 315°
2026-04-20 02:11 55.32939 -131.66927 335 ft 140 kts 317°
2026-04-20 02:11 55.33634 -131.68123 301 ft 139 kts 315°
2026-04-20 02:11 55.34337 -131.69309 233 ft 140 kts 316°
2026-04-20 02:12 55.35015 -131.70478 114 ft 133 kts 316°
2026-04-20 02:12 55.35584 -131.71451 99 ft 63 kts 317°
2026-04-20 02:12 55.35693 -131.71489 101 ft 14 kts 44°
2026-04-20 02:12 55.35679 -131.71308 102 ft 19 kts 118°
2026-04-20 02:13 55.35592 -131.71123 101 ft 15 kts 129°
2026-04-20 02:13 55.35588 -131.71103 103 ft 1 kts 115°
2026-04-20 02:13 55.35588 -131.71007 105 ft 12 kts 68°
2026-04-20 02:13 55.35611 -131.70966 102 ft 0 kts 46°